Погода Большеречье

Погода Большеречье : погода сейчас, прогноз погоды и архив. Всё, что Вы хотите узнать о погоде Большеречье!

Хотите узнать прогноз погоды Большеречье? Тогда Вам сюда: Погода Большеречье

Поиск расширенной информации на нашем сайте:

Другие новости

Новости СМИ2

Главная страница сайта

Новости сайта

03.07.2017

Напоминаем, что на нашем специализированном сайте Метеоцентр.Азия вы можете получить высокодетализированные автоматические прогнозы погоды по пунктам России, СНГ и мира в авиационном формате (включающие направление и скорость ветра, видимость, явления погоды, количество и форму облачности, нижнюю и верхнюю границу облачности).


Погода Большеречье - сегодня

Время (UTC), дата Ветер
(°,м/с) 
Видим.   Явления Облачность Т
(°С)
Тd
(°С)
f(%) Тe
(°С)
Pmin
(гПа)
dP
(гПа)
Po
(мм)
O2
(г/м3)
Тmin Tmax R s Состояние
почвы
06 17.05.18 300 (СЗ) 20000 м    9/9 600 м кучево-дожд. 
[Cb calv]
+1.4 -11 39 -1  1019.6  758  305           
12 17.05.18 270 (З) 3{11}  20000 м    6/4 1000 м верхняя 
[Cu hum|Ci fib]
+6.4 -9.6 31 +5  1017.2  -1.4  756  299           
18 17.05.18 180 (Ю) 10 км    10/0 верхняя 
[Cs]
+3.7 -6.7 47 +2  1014.5  -1.6  754  300           
21 17.05.18 190 (Ю) 10 км    10/10 600 м кучево-дожд. 
[Cb calv]
+4.2 -6 47 +2  1010.6  -3.8  751  299           
00 18.05.18 210 (ЮЗ) 5{10}  20000 м    10/0 средняя 
[Ac As]
+5 -5.4 47 +3  1007.5  -3  749  297           
03 18.05.18 220 (ЮЗ) 7-11{11}  20000 м    10/6 300 м средняя 
[Frnb|Ac As]
+8.4 -4.1 41 +6  1003.3  -4.1  746  292  +3.7        сухая 
15 18.05.18 320 (СЗ) 9-16{17}  20000 м  {ливн. осадки}  10/10 600 м 
[Sc]
+0.8 -7.1 55 -4  1013.1  2.1  753  303    +8.5     
00 19.05.18 320 (СЗ) 6-10{13}  20000 м    ясно 
-1.8 -7.5 65 -6  1021.1  3.1  759  308           
03 19.05.18 320 (СЗ) 5{10}  20000 м    1/0 верхняя 
[Ci fib]
+2.2 -7.5 49 1023.7  2.7  761  305          влажная 
06 19.05.18 330 (СЗ) 6{11}  20000 м    4/0 верхняя 
[Ci fib]
+5.7 -10.7 30 +3  1024.7  1.1  761  302           
09 19.05.18 320 (СЗ) 5{11}  20000 м    3/0 верхняя 
[Ci fib]
+8.9 -11.3 23 +7  1025  0.4  762  298           
12 19.05.18 310 (СЗ) 4{10}  20000 м    ясно 
+10.3 -9.6 24 +9  1025.2  0.3  762  297           
15 19.05.18 270 (З) 20000 м    1/0 верхняя 
[Ci]
+7.7 -8.5 31 +9  1025.4  0.3  762  299    +10.4       
18 19.05.18 160 (Ю) 10 км    ясно 
+1 -3.5 72 +2  1025.9  0.3  762  306           
21 19.05.18 180 (Ю) 10 км    10/0 средняя, верхняя 
[Ac lent|Ci fib]
+2.7 -7 49 +1  1025.6  -0.2  762  305           
00 20.05.18 180 (Ю) 20000 м    10/0 средняя, верхняя 
[Ac trans|Ci fib]
+3.8 -8.1 41 +2  1024.7  -0.8  761  303           
03 20.05.18 190 (Ю) 20000 м    10/3 600 м кучево-дожд., средняя 
[Cb calv|Ac As]
+8.9 -7.3 31 +8  1023  -1.5  760  297  -0.4        сухая 
15 20.05.18 170 (Ю) 4{12}  20000 м    4/1 600 м средняя, верхняя 
[Cu hum|As trans|Ci fib]
+13.1 +4.8 57 +13  1013  -2.3  753  289    +13.8     
18 20.05.18 180 (Ю) 10 км  {ливн. осадки}  9/8 600 м кучево-дожд., средняя 
[Cb calv|Ac trans]
+13.6 +3.4 50 +13  1011.1  -1.9  752  288           
21 20.05.18 200 (Ю) 10 км    8/4 600 м кучево-дожд., средняя 
[Cb calv|Ac trans]
+13.8 +4.8 55 +13  1009.5  -1.6  750  287           
00 21.05.18 220 (ЮЗ) 20000 м    9/3 600 м кучево-дожд., средняя, верхняя 
[Cb calv|Ac trans|Ci fib]
+17.1 +5.7 47 +17  1008.3  -1  750  283           
03 21.05.18 250 (З) 4{10}  20000 м    10/6 600 м кучево-дожд., средняя, верхняя 
[Cb calv|Ac As|Cc]
+21.1 +6.2 38 +21  1008.2  -0.1  749  279  +12.5    0.0    влажная 
15 21.05.18 360 (С) 5{12}  20000 м    9/3 600 м средняя, верхняя 
[Cu hum|Ac lent|Ci fib]
+15 +8.3 64 +15  1012.2  1.6  752  286    +26.8       
18 21.05.18 350 (С) 10 км    8/0 верхняя 
[Ci fib]
+8.6 +4.3 74 +7  1014.4  1.8  754  294           
21 21.05.18 290 (З) 10 км    10/3 300 м кучево-дожд., средняя 
[Cb calv|Ac As]
+5.6 +3.9 89 +5  1014.5  0.1  754  297           
Время (UTC), дата Ветер
(°,м/с) 
Видим.   Явления Облачность Т
(°С)
Тd
(°С)
f(%) Тe
(°С)
Pmin
(гПа)
dP
(гПа)
Po
(мм)
O2
(г/м3)
Тmin Tmax R s Состояние
почвы

Для получения пояснительной информации подведите курсор к названию столбца.

ПОГОДА Большеречье - архив

Всё, что Вы хотите узнать о погоде Большеречье - удобно и подробно!

Выберите нужную дату (начиная с 1 января 2015* года) и нажмите кнопку "Найти".
Будут отображены архивные сводки погоды по пункту Большеречье, начиная с указанной даты.


Отображать данные в формате CSV (для использования в таблицах Excel)


Внимание! Наш архив погоды предназначен исключительно для личного некоммерческого использования в познавательных целях. Если Вам необходимы официальные справки о состоянии погоды (для производственных, юридических, коммерческих и т.п. целей), обращайтесь в органы Росгидромета.

*Примечание: данная дата относится к архиву по метеостанциям СССР (Россия, СНГ, Балтия).
Архив по метеостанциям Зарубежной Европы и Азии (кроме Китая) хранится 10 дней, по другим регионам земного шара (Китай, Африка, Америка, Австралия, Океания) - 1 день.

Большеречье - район местоположения метеостанции


Название, широта, долгота, высота метеостанции:
Большеречье 56.1°ш. 74.6°д. 77 м над ур. моря [Российская Федерация]

Дополнительная информация

В oтличие oт бoльшинства пoгoдных сайтoв мы публикуем пoдрoбную метеoинфoрмацию в детальнoм прoфессиoнальнoм фoрмате.

Характеристики температуры и влажнoсти вoздуха измеряются на высoте 2 м в тени вдали oт зданий и деревьев.
Скoрoсть ветра измеряется на высoте 10 м (на урoвне рoста челoвека скoрoсть ветра ниже в 1.5-2 раза). Если метеoстанция нахoдится в гoрoде или в лесу, тo скoрoсть ветра занижена на 2-4 м/с пo сравнению с oткрытым местoм. Скoрoсть ветра над акватoриями крупных рек и oзёр, а также на вершинах хoлмoв на 2-5 м/с выше, чем в oбычных услoвиях.
Атмoсфернoе давление в разных тoчках местнoсти мoжет значительнo oтличаться oт давления на метеoстанции, в зависимoсти oт услoвий рельефа (при пoдъёме на 10 м давление пoнижается примернo на 1 мм рт.ст.).